Regional Weather Roundup
Issued by NWS

Home | Current Version | Previous Version | Graphics & Text | Print | Product List | Glossary On
Versions: 1 2 3 4 5 6 7 8 9 10 11 12 13 14 15 16 17 18 19 20 21 22 23 24 25 26 27 28 29 30 31 32 33 34 35 36 37 38 39 40 41 42 43 44 45 46 47 48 49 50
000
ASUS43 KMKX 021410
RWRWI

WISCONSIN REGIONAL WEATHER ROUNDUP
NATIONAL WEATHER SERVICE MILWAUKEE/SULLIVAN WI
800 AM CST MON MAR 02 2015

NOTE: "FAIR" INDICATES FEW OR NO CLOUDS BELOW 12,000 FEET WITH NO
SIGNIFICANT WEATHER AND/OR OBSTRUCTIONS TO VISIBILITY.

WIZ001-002-006>008-014>016-023>028-021500-
NORTHWEST WISCONSIN

CITY           SKY/WX    TMP DP  RH WIND       PRES   REMARKS
SUPERIOR ARPT  MOSUNNY    6   2  84 SW6       30.43R WCI  -4
ASHLAND        MOSUNNY    9   3  77 W8        30.42R WCI  -3
HAYWARD        MOSUNNY   -2  -7  79 CALM      30.38F
SIREN          PTSUNNY    0  -6  78 CALM      30.43R
CUMBERLAND     PTSUNNY    0  -6  78 S3        30.41R
RICE LAKE      PTSUNNY   -1  -4  85 CALM      30.44R
CHETEK         PTSUNNY    2  -1  85 CALM      30.43R
LADYSMITH      MOSUNNY    2  -2  83 CALM      30.41F
EAU CLAIRE     MOSUNNY    5   2  87 SW5       30.46R WCI  -4
MENOMONIE      PTSUNNY    9   4  81 SW3       30.47R
NEW RICHMOND   MOSUNNY    2  -2  83 S3        30.46R
OSCEOLA        PTSUNNY    4   2  88 CALM      30.48S
$$

WIZ003>005-009-010-017-018-021500-
NORTH CENTRAL WISCONSIN

CITY           SKY/WX    TMP DP  RH WIND       PRES   REMARKS
MANITOWISH WTR MOSUNNY    6   3  86 W5        30.35R WCI  -3
ARBOR VITAE    MOSUNNY   10   5  81 W5        30.35R WCI   2
WOODRUFF       MOSUNNY   10   5  81 W5        30.35R WCI   2
RHINELANDER    SUNNY      9   2  73 W7        30.36R WCI  -2
EAGLE RIVER    CLOUDY    11   4  71 W7        30.34R WCI   1
LAND O LAKES   PTSUNNY   15   7  72 W7        30.32S WCI   5
PHILLIPS       PTSUNNY    2  -2  85 CALM      30.36F
TOMAHAWK       MOSUNNY    7   3  82 CALM      30.38S
MEDFORD        MOSUNNY    6   2  86 CALM      30.37F
MERRILL        MOSUNNY    9   4  80 CALM      30.39F
$$

WIZ029-030-035-036-043>047-021500-
CENTRAL WISCONSIN

CITY           SKY/WX    TMP DP  RH WIND       PRES   REMARKS
WAUSAU         MOSUNNY   10   4  76 CALM      30.39S
MOSINEE          N/A      9   5  85 N5        30.40F WCI   0
MARSHFIELD     MOSUNNY    7   1  76 N6        30.41S WCI  -3
STEVENS POINT  MOSUNNY   10   4  77 NW6       30.42S WCI   0
WAUPACA        SUNNY     16   7  67 NW6       30.45R WCI   7
WAUTOMA        MOSUNNY   14   7  74 N8        30.46R WCI   3
WISC RAPIDS    PTSUNNY   10   4  76 NW5       30.45R WCI   2
CAMP DOUGLAS   SUNNY     12   9  85 W3        30.47R
$$

WIZ011>013-019>022-031-037>040-048>050-021500-
NORTHEAST WISCONSIN

CITY           SKY/WX    TMP DP  RH WIND       PRES   REMARKS
ANTIGO         SUNNY      6   3  87 W9        30.38R WCI  -7
SHAWANO        SUNNY     15   8  71 W6        30.44S WCI   7
OCONTO         SUNNY     14   7  73 W7        30.44R WCI   4
STURGEON BAY   SUNNY     14   7  73 W6        30.44R WCI   5
GREEN BAY      SUNNY     16   8  71 W7        30.45R WCI   6
MANITOWOC      SUNNY     18  10  71 NW9       30.45R WCI   7
APPLETON       SUNNY     10   3  72 W8        30.44R WCI  -1
CLINTONVILLE   SUNNY     14   7  73 NW6       30.44S WCI   5
OSHKOSH        MOSUNNY   15   7  70 NW8       30.44S WCI   4
$$

WIZ032>034-041-042-053>061-021500-
SOUTHWEST WISCONSIN

CITY           SKY/WX    TMP DP  RH WIND       PRES   REMARKS
LA CROSSE      MOSUNNY   11   7  84 CALM      30.51R
SPARTA         MOSUNNY    5   1  81 CALM      30.50R
VIROQUA        MOSUNNY   12  10  92 CALM      30.46R
BOSCOBEL       CLOUDY     7   4  87 CALM      30.52R FOG
PRAIRIE DU CHI PTSUNNY    6   2  83 CALM      30.53R
PLATTEVILLE    MOSUNNY    9   6  88 SW3       30.49R
$$

WIZ056-057-062-063-064-067-068-021500-
SOUTH CENTRAL WISCONSIN

CITY           SKY/WX    TMP DP  RH WIND       PRES   REMARKS
REEDSBURG      MOSUNNY    8   4  84 CALM      30.49R
BARABOO/DELLS  MOSUNNY   13   8  81 W3        30.47R
LONE ROCK      MOSUNNY    1  -3  83 CALM      30.51R
MINERAL POINT  MOSUNNY   12   9  85 CALM      30.46S
MADISON        MOSUNNY   17   9  70 W3        30.48R
MIDDLETON      MOSUNNY   13   8  82 W5        30.49R WCI   5
WATERTOWN      MOSUNNY   14  10  83 SW3       30.47R
MONROE         PTSUNNY   14  12  92 W8        30.47R WCI   3
JANESVILLE     SUNNY     10   7  85 CALM      30.50R
$$

WIZ051-052-058>065-066-070>072-021500-
SOUTHEAST WISCONSIN

CITY           SKY/WX    TMP DP  RH WIND       PRES   REMARKS
MILWAUKEE      MOSUNNY   19   8  62 NW12      30.47R WCI   7
WAUKESHA       SUNNY     12   7  79 W7        30.46R WCI   2
MILWAUKEE/TIMM SUNNY     16   9  73 W5        30.47R WCI   9
RACINE         MOSUNNY   15   7  70 W9        30.48R WCI   3
BURLINGTON     PTSUNNY   14   8  74 W8        30.48R WCI   3
KENOSHA        MOSUNNY   13   7  77 W8        30.48R WCI   2
FOND DU LAC    MOSUNNY   15   7  70 NW10      30.44S WCI   2
SHEBOYGAN      SUNNY     16   7  67 NW7       30.44R WCI   6
WEST BEND      MOSUNNY   18   9  68 NW7       30.44R WCI   8
JUNEAU         MOSUNNY   15   9  76 NW7       30.46R WCI   5
$$

LSZ147-162-021500-
LAKE SUPERIOR

STATION/POSITION TIME  TEMP    WIND        PRES    WAVE
                       AIR SEA DIR/SP/G            HT/PER
                 (UTC) (F)     (DEG/KT/KT) (MB)    (FT/S)
DEVILS ISLAND    1400   14     210/  8/ 10 1030.9R
PORT WING        1300    9     200/  8/ 10 1029.5S
SAXON HARBOR     1300   10     200/  7/  9 1029.5S
$$

LMZ867-665-643>646-021500-
LAKE MICHIGAN

STATION/POSITION TIME  TEMP    WIND        PRES    WAVE
                       AIR SEA DIR/SP/G            HT/PER
                 (UTC) (F)     (DEG/KT/KT) (MB)    (FT/S)
NORTHPORT PIER   1306   18     290/  9/ 15 1029.1R
SISTER BAY       1313   17        CALM       N/A
KEWAUNEE LAKESHO 1300   13     290/  4/  7 1029.2R
SHEBOYGAN LAKESH 1400   17     300/ 12/ 15 1032.5R
PORT WASHINGTON  1300   17     290/  6/ 13 1031.5R
MILWAUKEE LAKESH 1300   17     300/  8/ 10   N/A
KENOSHA   LAKESH 1400   16     280/ 11/ 15 1032.2R
$$

TC  - TEMPERATURE IN CELSIUS
VSB - VISIBILITY IN STATUTE MILES
WCI - WIND CHILL INDEX
HX  - HEAT INDEX



USA.gov is the U.S. government's official web portal to all federal, state and local government web resources and services.